This is the latest recevied weather packets stored in our database for station/object K6CED. If no packets are shown the sender has not sent any weather packets the latest 10 day(s).
| Time | Temp. | Humidity | Pressure | Rain* | Wind** | Luminosity | Snow |
|---|---|---|---|---|---|---|---|
| 1788034088 | 37.22° C | 36% | 1014.5 hPa | 0 mm | - | 765 W/m² | - |
| 1788033786 | 37.78° C | 35% | 1014.5 hPa | 0 mm | - | 771 W/m² | - |
| 1788033486 | 37.78° C | 35% | 1014.6 hPa | 0 mm | - | 781 W/m² | - |
| 1788033181 | 36.67° C | 35% | 1014.5 hPa | 0 mm | - | 788 W/m² | - |
| 1788032876 | 37.78° C | 33% | 1014.8 hPa | 0 mm | - | 800 W/m² | - |
| 1788032575 | 36.67° C | 34% | 1014.8 hPa | 0 mm | - | 808 W/m² | - |
| 1788032271 | 36.67° C | 34% | 1014.8 hPa | 0 mm | - | 817 W/m² | - |
| 1788031967 | 36.67° C | 34% | 1014.9 hPa | 0 mm | - | 819 W/m² | - |
| 1788031662 | 36.11° C | 35% | 1015 hPa | 0 mm | - | 824 W/m² | - |
| 1788031356 | 37.22° C | 33% | 1015 hPa | 0 mm | - | 827 W/m² | - |
| 1788031056 | 37.22° C | 33% | 1015.2 hPa | 0 mm | - | 832 W/m² | - |
| 1788030745 | 36.67° C | 34% | 1015.2 hPa | 0 mm | - | 835 W/m² | - |
| 1788030444 | 37.22° C | 33% | 1015.2 hPa | 0 mm | - | 847 W/m² | - |
| 1788030140 | 36.11° C | 34% | 1015.4 hPa | 0 mm | - | 875 W/m² | - |
| 1788029839 | 36.11° C | 34% | 1015.4 hPa | 0 mm | - | 926 W/m² | - |
| 1788029535 | 36.67° C | 33% | 1015.4 hPa | 0 mm | - | 663 W/m² | - |
| 1788029234 | 36.11° C | 34% | 1015.5 hPa | 0 mm | - | 818 W/m² | - |
| 1788028929 | 36.11° C | 34% | 1015.7 hPa | 0 mm | - | 775 W/m² | - |
| 1788028628 | 36.67° C | 34% | 1015.6 hPa | 0 mm | - | 639 W/m² | - |
| 1788028324 | 36.11° C | 34% | 1015.7 hPa | 0 mm | - | 638 W/m² | - |
| 1788028019 | 36.67° C | 33% | 1015.8 hPa | 0 mm | - | 639 W/m² | - |
| 1788027714 | 36.11° C | 33% | 1015.9 hPa | 0 mm | - | 808 W/m² | - |
| 1788027413 | 36.11° C | 34% | 1015.8 hPa | 0 mm | - | 786 W/m² | - |
| 1788027108 | 35.56° C | 36% | 1015.9 hPa | 0 mm | - | 776 W/m² | - |
| 1788026802 | 36.11° C | 36% | 1016 hPa | 0 mm | - | 766 W/m² | - |
* Rain latest hour (hover to see other rain measurements)
** Current wind speed in m/s (hover to see current wind gust speed)